cover

 

Get it on iTunes StoreListen on Apple Music

Lost In Space

#Trackname / Key / BPM / Publish dateArtists, Remixers / Label
1 145 bpm, 7A / D minor, 2018-01-12, Psy-Trance,  0  1
2 140 bpm, 7A / D minor, 2017-12-15, Psy-Trance,  0  1
3 140 bpm, 12B / E major, 2017-12-01, Psy-Trance,  0  18
4 140 bpm, 12B / E major, 2017-10-02, Psy-Trance,  1  1
5 140 bpm, 6B / Bb major, 2017-09-08, Psy-Trance,  0  25
6 140 bpm, 10B / D major, 2017-08-23, Psy-Trance,  0  1
7 140 bpm, 7B / F major, 2017-07-25, Psy-Trance,  0  1
8 147 bpm, 1A / Ab minor, 2017-07-17, Psy-Trance,  0  14
9 145 bpm, 7A / D minor, 2017-06-09, Psy-Trance,  0  9
10 145 bpm, 5B / Eb major, 2017-05-29, Psy-Trance,  0  25
11 140 bpm, 6B / Bb major, 2017-05-25, Psy-Trance,  0  2
12 140 bpm, 7A / D minor, 2017-05-25, Psy-Trance,  0  2
13 140 bpm, 6A / G minor, 2017-05-01, Psy-Trance,  0  2
14 142 bpm, 1B / B major, 2017-05-01, Psy-Trance,  0  2
15 135 bpm, 7B / F major, 2017-04-20, Psy-Trance,  0  2
16 135 bpm, 12B / E major, 2017-04-20, Psy-Trance,  0  2
17 144 bpm, 5B / Eb major, 2017-03-27, Psy-Trance,  0  25
18 144 bpm, 12B / E major, 2017-03-15, Psy-Trance,  1  1
19 145 bpm, 5B / Eb major, 2017-02-01, Psy-Trance,  1  1
20 145 bpm, 5B / Eb major, 2017-01-11, Psy-Trance,  2  1
21 142 bpm, 10A / B minor, 2016-12-12, Psy-Trance,  0  10
22 140 bpm, 9B / G major, 2016-11-18, Psy-Trance,  0  18
23 144 bpm, 5B / Eb major, 2016-11-15, Psy-Trance,  0  1
24 145 bpm, 5B / Eb major, 2016-10-07, Psy-Trance,  0  1
25 140 bpm, 6A / G minor, 2016-09-19, Psy-Trance,  0  2
26 140 bpm, 7A / D minor, 2016-09-19, Psy-Trance,  0  2
27 140 bpm, 7A / D minor, 2016-09-15, Psy-Trance,  0  25
28 147 bpm, 1A / Ab minor, 2016-08-01, Psy-Trance,  0  1
29 140 bpm, 12B / E major, 2016-06-21, Psy-Trance,  0  2
30 140 bpm, 12B / E major, 2016-06-17, Psy-Trance,  0  3
31 140 bpm, 8A / A minor, 2016-06-17, Psy-Trance,  0  3
32 140 bpm, 8A / A minor, 2016-06-17, Psy-Trance,  0  3
33 140 bpm, 8A / A minor, 2016-06-03, Psy-Trance,  0  1
34 140 bpm, 12B / E major, 2016-05-31, Psy-Trance,  0  1
35 138 bpm, 9B / G major, 2016-05-16, Psy-Trance,  0  4
36 138 bpm, 10B / D major, 2016-05-16, Psy-Trance,  0  4
37 140 bpm, 7A / D minor, 2016-05-16, Psy-Trance,  0  4
38 138 bpm, 6A / G minor, 2016-05-16, Psy-Trance,  0  4
39 140 bpm, 7A / D minor, 2016-05-02, Psy-Trance,  1  2
40 93 bpm, 6A / G minor, 2016-05-02, Psy-Trance,  1  2
41 140 bpm, 7A / D minor, 2016-02-15, Psy-Trance,  0  2
42 138 bpm, 10B / D major, 2016-02-15, Psy-Trance,  1  2
43 138 bpm, 12B / E major, 2015-06-15, Psy-Trance,  0  2
44 138 bpm, 10A / B minor, 2015-06-15, Psy-Trance,  0  2
45 124 bpm, 2B / F# major, 2014-03-24, Techno,  0  6
46 130 bpm, 3A / Bb minor, 2011-04-29 (2011-05-06), Techno,  1  6
47 187 bpm, 10B / D major, 2010-11-15, Dubstep,  0  4
48 153 bpm, 6B / Bb major, 2006-11-22, Trance,  0  6
×

Sign in

Sign in to access your personalized pages, follow artists and labels you love, and create playlists fromyour favorite tracks.

Please wait...